If you wish to contribute or participate in the discussions about articles you are invited to join SKYbrary as a registered user

 Actions

Casablanca-Anfa Airport

From SKYbrary Wiki

GMMC
Airport
ICAO: GMMC – IATA: CAS
Summary
Name Casablanca-Anfa Airport
Region Africa
Territory Morocco MA.gif
Location Casablanca, Grand Casablanca
Serving Casablanca
Elevation 61.874 m
203 ft
203 ft61.874 m
Coordinates 33° 33' 24.00" N, 7° 39' 48.00" W
Runways
Designator Length Width Surface ROPS
3/21 1880 m6,167.979 ft
0 m0 ft
UNK no/no


METAR
Observation GMMC 241400Z 36012KT CAVOK 28/15 Q1016
Station Casablanca
Date/Time 24 May 2020 14:00:00
Wind direction 360°
Wind speed 12 kts
Lowest cloud amount clouds and visibility OK
Temperature 28°C
Dew point 15°C
Humidity 45%
QNH 1016 hPa
Weather condition n/a

Casablanca/Anfa Airport

ICAO: GMMC IATA: CAS

Description

International airport serving Casablanca, Morroco.

Climatology

Semi-arid/Dry-summer subtropical ”Mediterranean" climate (Köppen climate classification Csb/BSh) - characterized by hot, dry summers and mild winters. During the summer, subtropical high pressure cells dominate, making rainfall unlikely except for the occasional thunderstorm.

Maps

Terrain

Loading map...

Airport Layout

Loading map...


Accidents & Serious Incidents at or in vicinity of GMMC

None on SKYbrary